Vertical_Velocity
1 2 -0 -0 2 -1 1 1 -5 9 2 -4 -2 -0 3 11 2 -3 -3 1 0 3 2 -5 -6 -2 -4 -0 5 -3 -1 -16 -8 4 9 -1 2 -2 -2 -5 -0 6 -3 7
-2 -2 0 -0 1 -1 -4 -2 -2 0 2 -6 4 -1 -3 -4 4 9 -2 1 2 6 3 -10 0 -1 2 -5 0 -11 -1 -14 -10 7 12 -1 2 3 -0 -10 1 21 -6 -28
2 -0 -2 0 2 -3 1 5 0 5 -1 -2 4 1 -2 -5 5 4 1 -2 -0 2 2 2 -6 4 -1 -8 -3 0 -11 -1 3 -9 8 -11 1 13 7 -0 0 -6 21 -28
-1 -1 0 2 3 0 1 -2 -2 1 -6 1 3 -0 3 3 2 2 4 5 4 2 -5 -4 2 -2 -2 1 1 -2 -6 -6 -6 0 7 -2 -7 1 10 -2 2 -9 2 3
-1 -1 2 0 -2 -1 -3 -4 2 1 -0 3 -0 -4 7 2 10 3 1 5 2 -3 3 -5 1 1 -4 5 -3 -1 -3 -8 -4 -1 4 -7 -3 7 2 5 -1 0 -0 6
-0 3 4 2 3 0 0 -1 -1 2 5 2 3 -1 1 6 1 5 6 2 1 -1 3 -10 -1 -5 3 2 -3 -3 -2 -2 4 -8 11 -5 3 3 1 3 -4 -3 -2 -1
0 -3 -4 0 1 -3 -3 -2 0 -2 3 1 2 2 3 3 2 2 5 2 -6 14 -11 -10 -9 -9 0 -1 8 2 -1 1 -1 -7 4 -8 6 0 1 -1 -6 1 -1 -6
-1 -1 -3 -2 -3 4 -0 2 -3 -3 -2 -0 4 2 -2 2 3 4 -3 12 4 -4 -2 -5 -14 -2 -2 8 0 2 -5 -2 -5 -13 1 -1 22 1 -1 -5 8 -0 6 -4
-3 -3 1 0 -1 -3 -1 -1 -0 -3 -2 9 10 -2 -0 5 -0 1 6 7 2 -1 -6 -6 -15 -20 12 -6 -6 11 4 -4 -5 -4 -6 -15 16 1 -1 -1 2 -5 4 -4
1 -0 -1 0 1 1 1 -6 -3 -2 -6 12 1 11 -2 -7 3 1 6 -7 3 -8 5 -5 -7 -14 3 -16 -8 9 3 1 -7 2 -17 2 8 2 -0 -3 -3 -4 3 -6
2 3 0 1 -0 -3 -0 -6 -6 -1 -7 5 12 -4 6 7 8 -9 7 -12 15 3 -6 -2 6 -18 6 -21 11 4 -4 -2 1 -3 -14 9 -4 1 -1 0 -0 -2 4 -6
-1 2 0 0 -2 -1 -6 6 -7 -11 -5 14 -2 5 9 -1 4 -8 -7 -5 9 3 -0 -1 -5 -7 -8 3 -13 -5 -28 -1 10 -7 5 -2 0 3 1 1 1 -1 1 -6
-1 -1 1 1 -1 -2 -7 2 -4 -13 -9 7 1 24 -4 -3 -0 3 -15 9 4 2 10 0 24 -12 4 -7 -11 -4 -7 6 -15 -9 18 6 -0 2 2 1 3 2 -1 -3
0 1 1 -0 1 -1 -4 -7 -3 -3 -17 -21 38 0 -1 1 0 -1 -10 7 -7 -1 0 -1 -11 -13 11 5 -6 -9 9 3 10 -3 6 3 3 1 1 3 3 3 -0 2
-2 1 0 -1 -0 1 -5 -5 4 0 -18 -16 1 -1 9 9 0 -0 -9 -2 11 -0 7 -11 -8 7 3 -1 5 -14 16 3 -12 15 18 -1 2 1 2 1 4 2 4 -2
-0 -0 0 -0 -0 -0 -4 -5 5 6 -1 -27 -12 2 9 7 5 -9 -3 6 -0 4 -0 2 -11 7 2 -2 -10 19 -0 0 8 4 3 3 1 1 1 1 5 2 4 0
-1 1 -0 -1 1 -1 -6 0 6 5 6 -11 -24 7 7 8 5 7 2 1 1 -5 2 -9 -3 -1 6 4 -21 14 12 7 4 6 4 4 2 2 1 1 4 5 -2 4
-0 -0 1 0 -0 -5 -4 10 5 0 -4 -15 -15 3 3 3 7 3 2 14 10 -2 -3 -1 -1 3 1 -37 12 -5 7 3 2 4 6 3 2 3 1 2 0 5 4 -1
1 1 -0 -6 -3 -2 10 -4 3 -2 -13 -8 -7 6 11 4 -1 6 13 15 -5 -6 -5 0 -2 -4 -26 32 15 -2 9 7 6 5 4 5 4 2 2 1 1 2 1 2
-1 -1 -9 3 5 -5 6 0 -6 -5 -9 -11 1 5 8 -6 8 15 -2 16 9 -2 6 -5 -13 -2 6 -1 2 -5 4 3 4 5 5 4 3 2 3 0 1 1 2 -1
1 -2 -1 -0 -1 -1 -2 -6 2 -1 -5 -1 10 2 7 3 4 9 -2 15 11 -0 3 -6 -10 14 14 0 3 4 -3 2 3 3 5 4 2 0 3 2 2 1 2 3
-2 -3 -3 1 -0 -0 -4 3 3 -3 -6 5 4 5 -2 2 5 1 3 -5 1 -4 4 -2 -0 17 8 4 -2 3 -3 -7 -1 1 2 2 2 2 1 1 2 1 2 1
-5 -3 0 1 -2 -2 4 3 4 4 6 5 12 11 19 7 3 -3 -3 -3 1 2 -3 1 9 2 -1 -3 -3 -2 -3 2 1 -2 -1 -0 2 2 1 1 0 1 1 1
-2 1 1 -1 2 6 10 11 3 2 5 3 8 8 7 12 4 -0 2 0 -0 -3 8 12 -1 -2 -0 1 0 3 -2 0 0 -2 -1 0 1 0 0 1 1 0 1 1
-3 -0 -3 3 -2 5 21 1 -1 -3 4 4 3 5 6 5 5 1 -2 -2 -3 3 4 -0 -4 -1 -4 -1 -3 -2 -3 -2 -2 -1 0 0 0 1 1 1 1 0 0 0
-6 -4 2 4 -1 3 0 1 -0 2 4 5 5 4 4 -1 3 2 1 -2 3 5 5 7 1 -1 -3 1 1 -1 -0 -0 -1 -1 -0 -1 -1 -1 1 1 -0 1 1 1
-0 4 -2 -4 3 1 -1 -0 0 8 6 6 6 7 14 1 -0 -3 3 2 -2 2 5 3 2 0 1 0 1 2 1 -0 -0 -0 -0 -0 -0 1 1 -0 1 2 1 0
Height
5634 5638 5640 5643 5645 5648 5653 5657 5661 5665 5668 5672 5674 5676 5680 5684 5684 5685 5688 5690 5690 5690 5691 5691 5692 5693 5692 5693 5694 5693 5691 5689 5688 5690 5685 5681 5675 5669 5661 5654 5649 5643 5632 5626
5626 5628 5630 5632 5635 5637 5640 5645 5649 5652 5655 5657 5662 5664 5667 5668 5670 5674 5674 5677 5678 5680 5680 5681 5682 5683 5684 5684 5684 5682 5682 5681 5680 5682 5680 5676 5669 5664 5657 5649 5642 5637 5626 5618
5617 5619 5621 5621 5623 5626 5629 5633 5635 5640 5641 5644 5647 5649 5650 5652 5656 5660 5661 5662 5665 5666 5668 5670 5672 5673 5674 5673 5673 5673 5673 5674 5672 5673 5671 5667 5665 5663 5655 5645 5639 5630 5625 5615
5609 5610 5610 5612 5614 5616 5618 5620 5622 5625 5627 5628 5631 5633 5635 5639 5642 5647 5649 5651 5652 5653 5656 5658 5660 5661 5661 5663 5665 5665 5663 5665 5665 5664 5663 5661 5659 5657 5652 5643 5635 5625 5621 5613
5599 5600 5603 5603 5604 5607 5608 5608 5612 5613 5615 5616 5619 5620 5625 5627 5631 5634 5636 5638 5640 5641 5643 5645 5647 5649 5652 5653 5653 5654 5654 5654 5655 5656 5655 5653 5652 5652 5645 5639 5632 5624 5616 5612
5590 5591 5593 5595 5596 5597 5598 5601 5604 5605 5607 5607 5609 5612 5615 5617 5620 5625 5625 5626 5626 5629 5631 5632 5635 5637 5639 5642 5643 5643 5645 5645 5645 5648 5648 5646 5647 5645 5639 5634 5627 5620 5613 5609
5578 5579 5581 5584 5586 5585 5589 5589 5592 5595 5596 5596 5599 5602 5605 5606 5607 5611 5612 5614 5614 5616 5613 5616 5620 5623 5627 5629 5631 5632 5633 5635 5635 5637 5638 5639 5641 5638 5634 5629 5623 5617 5610 5605
5568 5569 5570 5572 5574 5574 5577 5579 5580 5582 5584 5586 5588 5591 5591 5593 5593 5596 5597 5599 5600 5599 5600 5600 5604 5610 5614 5617 5620 5621 5622 5624 5625 5625 5629 5632 5636 5632 5629 5624 5622 5614 5609 5604
5556 5556 5557 5557 5560 5561 5565 5566 5567 5569 5570 5573 5575 5576 5576 5577 5578 5580 5582 5583 5583 5583 5584 5585 5588 5594 5598 5602 5607 5610 5610 5612 5614 5618 5619 5622 5628 5625 5622 5619 5617 5611 5607 5603
5541 5542 5543 5543 5546 5548 5549 5550 5554 5556 5557 5558 5559 5560 5562 5561 5560 5565 5567 5567 5568 5566 5566 5568 5572 5578 5581 5586 5591 5596 5597 5599 5604 5609 5608 5616 5621 5618 5617 5616 5615 5607 5604 5601
5527 5527 5528 5529 5529 5530 5532 5534 5537 5540 5542 5542 5543 5542 5548 5544 5542 5547 5552 5549 5553 5552 5550 5552 5555 5559 5562 5566 5575 5579 5583 5586 5594 5598 5601 5609 5613 5613 5613 5611 5607 5604 5601 5597
5512 5512 5512 5512 5512 5512 5514 5516 5517 5520 5525 5526 5525 5527 5526 5526 5526 5528 5530 5535 5538 5538 5537 5540 5542 5544 5546 5551 5555 5562 5565 5574 5581 5588 5596 5601 5604 5607 5607 5606 5604 5601 5599 5596
5496 5495 5495 5494 5493 5493 5494 5497 5497 5498 5504 5507 5510 5512 5507 5512 5511 5509 5514 5522 5526 5526 5529 5531 5535 5533 5536 5539 5543 5549 5552 5560 5566 5576 5589 5593 5597 5600 5601 5601 5599 5598 5596 5595
5478 5477 5476 5476 5474 5474 5474 5475 5476 5477 5480 5487 5504 5490 5492 5494 5495 5497 5503 5512 5508 5514 5516 5519 5520 5524 5529 5532 5535 5533 5541 5546 5556 5567 5580 5585 5590 5593 5595 5596 5595 5594 5593 5592
5459 5458 5457 5456 5457 5457 5458 5459 5461 5461 5461 5468 5479 5477 5483 5483 5487 5490 5494 5498 5502 5504 5506 5507 5511 5516 5518 5522 5520 5523 5532 5538 5546 5562 5572 5575 5582 5586 5589 5590 5590 5590 5590 5589
5440 5439 5440 5440 5441 5441 5441 5445 5450 5452 5451 5449 5456 5465 5470 5476 5480 5482 5485 5490 5492 5494 5495 5497 5500 5506 5509 5508 5512 5520 5524 5532 5542 5551 5560 5567 5574 5579 5583 5584 5585 5585 5586 5587
5425 5426 5426 5426 5427 5427 5428 5434 5439 5441 5441 5438 5442 5453 5463 5469 5472 5477 5479 5482 5484 5485 5486 5488 5493 5498 5500 5503 5508 5514 5519 5527 5534 5543 5553 5561 5567 5572 5576 5578 5580 5581 5582 5583
5413 5414 5415 5415 5416 5417 5422 5425 5426 5427 5428 5431 5433 5447 5457 5460 5465 5469 5473 5476 5476 5478 5481 5484 5487 5491 5493 5496 5506 5509 5513 5520 5528 5538 5547 5554 5560 5566 5570 5573 5574 5577 5578 5579
5404 5405 5404 5404 5406 5408 5413 5413 5415 5417 5420 5422 5431 5442 5448 5453 5459 5463 5466 5467 5469 5472 5474 5477 5481 5485 5486 5495 5502 5505 5511 5517 5527 5534 5542 5549 5555 5561 5565 5568 5569 5572 5573 5576
5396 5396 5393 5397 5400 5399 5403 5405 5408 5412 5413 5418 5431 5439 5445 5450 5453 5456 5459 5462 5465 5467 5471 5474 5476 5481 5486 5491 5497 5500 5506 5514 5522 5530 5538 5544 5550 5555 5560 5563 5565 5567 5568 5570
5386 5384 5386 5389 5390 5392 5395 5400 5405 5408 5415 5423 5433 5437 5442 5445 5448 5451 5452 5458 5461 5464 5469 5470 5473 5479 5486 5487 5491 5496 5502 5510 5518 5525 5533 5539 5545 5550 5555 5558 5561 5563 5564 5565
5377 5378 5379 5382 5384 5387 5391 5396 5401 5410 5417 5426 5432 5436 5437 5441 5444 5447 5451 5453 5457 5460 5463 5464 5467 5476 5478 5480 5485 5491 5499 5506 5514 5521 5529 5535 5540 5545 5549 5553 5555 5557 5559 5560
5372 5373 5375 5377 5380 5384 5389 5395 5404 5413 5419 5423 5427 5432 5435 5439 5441 5445 5447 5448 5451 5454 5456 5458 5466 5467 5469 5472 5479 5488 5497 5504 5511 5518 5525 5531 5536 5540 5544 5547 5549 5550 5552 5554
5369 5370 5372 5373 5377 5384 5392 5399 5404 5409 5413 5418 5423 5426 5431 5436 5439 5441 5443 5445 5448 5450 5453 5458 5458 5460 5464 5469 5476 5486 5494 5501 5507 5514 5520 5526 5530 5534 5538 5540 5542 5544 5545 5547
5364 5366 5367 5372 5377 5383 5392 5396 5402 5405 5410 5415 5420 5424 5428 5432 5435 5437 5439 5442 5444 5450 5452 5452 5454 5458 5462 5468 5475 5483 5491 5498 5505 5511 5516 5521 5525 5529 5532 5534 5536 5537 5539 5540
5358 5361 5366 5371 5376 5382 5388 5394 5400 5404 5409 5414 5418 5422 5426 5428 5431 5434 5437 5441 5446 5447 5446 5448 5452 5457 5461 5468 5475 5482 5489 5495 5502 5507 5512 5516 5520 5523 5526 5528 5529 5531 5532 5533
5355 5360 5363 5367 5375 5382 5387 5393 5398 5404 5408 5412 5416 5421 5426 5427 5429 5433 5438 5441 5441 5441 5444 5447 5451 5455 5461 5467 5473 5479 5486 5492 5498 5503 5507 5511 5514 5517 5520 5522 5524 5526 5527 5528